NKS374 TJSJ-KMCO

Flight info

Callsign NKS374
Flight time 2h 42m
Altitude 36000
Route ACONY3 SAPPO Y280 OCTAL MUNGI1
Aircraft A320/M-SDE3FGHIRWY/LB1

Departure

Time 2026-05-04 11:51
Airport Luis Munoz Marin International Airport (TJSJ)

Arrival

Time 2026-05-04 14:33
Airport Orlando International Airport (KMCO)
Time Latitude Longitude Altitude Speed Heading
2026-05-04 11:48 18.43775 -66.01447 19 ft 0 kts 247°
2026-05-04 11:48 18.43771 -66.01457 19 ft 4 kts 247°
2026-05-04 11:48 18.43756 -66.01504 17 ft 8 kts 260°
2026-05-04 11:49 18.43787 -66.01552 19 ft 9 kts 323°
2026-05-04 11:49 18.43837 -66.01574 17 ft 6 kts 17°
2026-05-04 11:49 18.43853 -66.01545 19 ft 3 kts 67°
2026-05-04 11:49 18.43855 -66.01540 17 ft 0 kts 67°
2026-05-04 11:50 18.43871 -66.01499 17 ft 30 kts 67°
2026-05-04 11:50 18.44046 -66.01068 17 ft 95 kts 67°
2026-05-04 11:50 18.44374 -66.00259 18 ft 143 kts 67°
2026-05-04 11:50 18.44818 -65.99163 100 ft 175 kts 68°
2026-05-04 11:51 18.45487 -65.98155 741 ft 173 kts 30°
2026-05-04 11:51 18.46649 -65.97980 1325 ft 174 kts 343°
2026-05-04 11:51 18.47672 -65.98642 1845 ft 179 kts 314°
2026-05-04 11:51 18.48582 -65.99642 2065 ft 200 kts 313°
2026-05-04 11:52 18.49592 -66.00766 2257 ft 223 kts 313°
2026-05-04 11:52 18.50722 -66.02018 2471 ft 248 kts 314°
2026-05-04 11:52 18.51971 -66.03390 2826 ft 269 kts 315°
2026-05-04 11:52 18.53298 -66.04838 3500 ft 278 kts 315°
2026-05-04 11:53 18.54658 -66.06317 4286 ft 283 kts 315°
2026-05-04 11:53 18.56038 -66.07818 5076 ft 287 kts 316°
2026-05-04 11:53 18.57437 -66.09340 5868 ft 291 kts 316°
2026-05-04 11:53 18.58854 -66.10876 6608 ft 294 kts 316°
2026-05-04 11:55 18.69337 -66.22254 10433 ft 348 kts 315°
2026-05-04 11:55 18.71062 -66.24129 10692 ft 361 kts 315°
2026-05-04 11:56 18.72798 -66.26020 11182 ft 366 kts 314°
2026-05-04 11:56 18.74596 -66.27978 11758 ft 368 kts 314°
2026-05-04 11:56 18.76381 -66.29921 12333 ft 370 kts 314°
2026-05-04 11:56 18.78175 -66.31873 12906 ft 372 kts 314°
2026-05-04 11:57 18.79980 -66.33836 13445 ft 374 kts 314°
2026-05-04 11:57 18.81794 -66.35811 14002 ft 376 kts 313°
2026-05-04 11:57 18.83617 -66.37796 14541 ft 378 kts 313°
2026-05-04 11:57 18.85450 -66.39791 15074 ft 379 kts 313°
2026-05-04 11:58 18.87294 -66.41802 15587 ft 381 kts 313°
2026-05-04 11:58 18.89139 -66.43823 16080 ft 383 kts 312°
2026-05-04 11:58 18.90970 -66.45828 16562 ft 386 kts 312°
2026-05-04 11:58 18.92865 -66.47895 17052 ft 387 kts 313°
2026-05-04 11:59 18.94777 -66.49914 17526 ft 390 kts 314°
2026-05-04 11:59 18.96738 -66.51908 17995 ft 392 kts 314°
2026-05-04 11:59 18.98702 -66.53868 18465 ft 395 kts 314°
2026-05-04 11:59 19.00734 -66.55887 18906 ft 397 kts 315°
2026-05-04 12:00 19.02751 -66.57900 19313 ft 401 kts 315°
2026-05-04 12:00 19.04777 -66.59938 19731 ft 404 kts 315°
2026-05-04 12:00 19.06811 -66.61997 20133 ft 407 kts 315°
2026-05-04 12:00 19.08738 -66.64197 20518 ft 408 kts 308°
2026-05-04 12:01 19.10517 -66.66492 20888 ft 411 kts 308°
2026-05-04 12:01 19.12338 -66.68839 21253 ft 414 kts 308°
2026-05-04 12:02 19.23547 -66.83252 23235 ft 431 kts 309°
2026-05-04 12:03 19.25452 -66.85709 23527 ft 433 kts 309°
2026-05-04 12:03 19.27372 -66.88180 23820 ft 436 kts 309°
2026-05-04 12:03 19.29305 -66.90664 24105 ft 438 kts 309°
2026-05-04 12:03 19.31248 -66.93159 24402 ft 440 kts 309°
2026-05-04 12:04 19.33195 -66.95664 24713 ft 441 kts 309°
2026-05-04 12:04 19.35144 -66.98180 25005 ft 443 kts 309°
2026-05-04 12:04 19.37097 -67.00710 25293 ft 444 kts 309°
2026-05-04 12:04 19.39054 -67.03247 25596 ft 445 kts 309°
2026-05-04 12:05 19.41017 -67.05784 25918 ft 446 kts 309°
2026-05-04 12:05 19.42990 -67.08328 26227 ft 446 kts 309°
2026-05-04 12:05 19.44962 -67.10869 26527 ft 447 kts 309°
2026-05-04 12:05 19.46936 -67.13417 26824 ft 448 kts 309°
2026-05-04 12:06 19.48912 -67.15969 27118 ft 448 kts 308°
2026-05-04 12:06 19.50891 -67.18527 27394 ft 449 kts 308°
2026-05-04 12:06 19.52873 -67.21091 27676 ft 450 kts 308°
2026-05-04 12:06 19.54850 -67.23652 28057 ft 448 kts 308°
2026-05-04 12:07 19.56818 -67.26204 28461 ft 446 kts 308°
2026-05-04 12:07 19.58774 -67.28745 28881 ft 444 kts 308°
2026-05-04 12:07 19.60720 -67.31271 29316 ft 441 kts 308°
2026-05-04 12:07 19.62658 -67.33787 29754 ft 438 kts 308°
2026-05-04 12:08 19.64582 -67.36285 30180 ft 436 kts 308°
2026-05-04 12:08 19.66495 -67.38768 30598 ft 434 kts 308°
2026-05-04 12:08 19.68398 -67.41244 30988 ft 433 kts 308°
2026-05-04 12:08 19.70296 -67.43720 31336 ft 432 kts 308°
2026-05-04 12:09 19.72195 -67.46190 31686 ft 432 kts 308°
2026-05-04 12:09 19.74095 -67.48655 32023 ft 431 kts 308°
2026-05-04 12:09 19.75969 -67.51087 32339 ft 432 kts 308°
2026-05-04 12:09 19.77893 -67.53588 32671 ft 432 kts 308°
2026-05-04 12:10 19.79790 -67.56058 32997 ft 432 kts 308°
2026-05-04 12:10 19.81661 -67.58497 33315 ft 432 kts 308°
2026-05-04 12:10 19.83555 -67.60970 33630 ft 432 kts 308°
2026-05-04 12:10 19.85446 -67.63444 33927 ft 432 kts 308°
2026-05-04 12:11 19.87340 -67.65917 34229 ft 432 kts 308°
2026-05-04 12:11 19.89237 -67.68394 34494 ft 431 kts 308°
2026-05-04 12:11 19.91127 -67.70865 34800 ft 430 kts 308°
2026-05-04 12:11 19.93012 -67.73329 35103 ft 429 kts 308°
2026-05-04 12:12 19.94893 -67.75786 35397 ft 428 kts 308°
2026-05-04 12:12 19.96769 -67.78234 35693 ft 426 kts 308°
2026-05-04 12:12 19.98640 -67.80674 35969 ft 425 kts 308°
2026-05-04 12:12 20.00507 -67.83115 36058 ft 427 kts 308°
2026-05-04 12:14 20.15890 -68.03276 36073 ft 442 kts 308°
2026-05-04 12:15 20.19760 -68.08357 36073 ft 442 kts 308°
2026-05-04 12:15 20.23606 -68.13408 36075 ft 442 kts 308°
2026-05-04 12:16 20.27472 -68.18502 36070 ft 442 kts 308°
2026-05-04 12:16 20.31333 -68.23602 36069 ft 442 kts 308°
2026-05-04 12:17 20.35203 -68.28700 36066 ft 442 kts 308°
2026-05-04 12:17 20.39065 -68.33787 36063 ft 442 kts 307°
2026-05-04 12:18 20.42918 -68.38886 36068 ft 441 kts 307°
2026-05-04 12:18 20.46306 -68.44323 36066 ft 440 kts 301°
2026-05-04 12:19 20.49564 -68.49851 36058 ft 440 kts 301°
2026-05-04 12:19 20.52828 -68.55383 36046 ft 440 kts 301°
2026-05-04 12:20 20.56084 -68.60913 36055 ft 440 kts 301°
2026-05-04 12:20 20.59330 -68.66444 36054 ft 440 kts 301°
2026-05-04 12:21 20.62568 -68.71976 36043 ft 439 kts 300°
2026-05-04 12:21 20.65806 -68.77503 36058 ft 439 kts 300°
2026-05-04 12:22 20.69041 -68.83028 36058 ft 438 kts 300°
2026-05-04 12:22 20.72271 -68.88553 36052 ft 438 kts 300°
2026-05-04 12:23 20.75496 -68.94077 36051 ft 438 kts 300°
2026-05-04 12:23 20.78704 -68.99569 36044 ft 438 kts 300°
2026-05-04 12:24 20.81932 -69.05092 36055 ft 438 kts 300°
2026-05-04 12:24 20.85149 -69.10625 36052 ft 438 kts 300°
2026-05-04 12:25 20.88370 -69.16149 36052 ft 437 kts 300°
2026-05-04 12:25 20.91578 -69.21671 36047 ft 437 kts 300°
2026-05-04 12:26 20.94786 -69.27197 36050 ft 437 kts 300°
2026-05-04 12:26 20.98000 -69.32716 36061 ft 437 kts 300°
2026-05-04 12:27 21.01196 -69.38244 36048 ft 436 kts 300°
2026-05-04 12:27 21.04391 -69.43763 36050 ft 436 kts 300°
2026-05-04 12:28 21.07581 -69.49282 36054 ft 436 kts 300°
2026-05-04 12:28 21.10776 -69.54800 36054 ft 436 kts 300°
2026-05-04 12:29 21.13967 -69.60318 36052 ft 436 kts 300°
2026-05-04 12:29 21.17128 -69.65803 36037 ft 435 kts 299°
2026-05-04 12:30 21.20298 -69.71317 36052 ft 434 kts 299°
2026-05-04 12:30 21.23466 -69.76827 36044 ft 434 kts 299°
2026-05-04 12:31 21.26637 -69.82332 36053 ft 433 kts 299°
2026-05-04 12:31 21.29802 -69.87833 36055 ft 434 kts 299°
2026-05-04 12:32 21.34544 -69.96084 36050 ft 433 kts 299°
2026-05-04 12:33 21.37695 -70.01592 36055 ft 433 kts 299°
2026-05-04 12:33 21.40838 -70.07091 36047 ft 432 kts 299°
2026-05-04 12:34 21.43472 -70.11687 36056 ft 431 kts 299°
2026-05-04 12:34 21.46610 -70.17172 36037 ft 431 kts 299°
2026-05-04 12:35 21.49742 -70.22662 36035 ft 431 kts 299°
2026-05-04 12:35 21.52849 -70.28109 36034 ft 430 kts 299°
2026-05-04 12:36 21.55972 -70.33593 36033 ft 430 kts 298°
2026-05-04 12:36 21.59094 -70.39078 36033 ft 430 kts 299°
2026-05-04 12:37 21.62214 -70.44563 36032 ft 430 kts 298°
2026-05-04 12:37 21.65328 -70.50054 36030 ft 430 kts 298°
2026-05-04 12:38 21.68445 -70.55548 36026 ft 430 kts 298°
2026-05-04 12:38 21.71567 -70.61047 36030 ft 431 kts 298°
2026-05-04 12:39 21.74683 -70.66546 36032 ft 431 kts 298°
2026-05-04 12:39 21.77798 -70.72049 36032 ft 431 kts 298°
2026-05-04 12:40 21.80911 -70.77558 36029 ft 431 kts 298°
2026-05-04 12:40 21.84021 -70.83071 36026 ft 431 kts 298°
2026-05-04 12:41 21.87130 -70.88597 36022 ft 431 kts 298°
2026-05-04 12:41 21.90236 -70.94114 36022 ft 431 kts 298°
2026-05-04 12:42 21.93339 -70.99629 36020 ft 430 kts 298°
2026-05-04 12:42 21.96439 -71.05141 36015 ft 430 kts 298°
2026-05-04 12:43 21.99541 -71.10654 36011 ft 430 kts 298°
2026-05-04 12:43 22.02638 -71.16171 36011 ft 430 kts 297°
2026-05-04 12:44 22.05726 -71.21678 36020 ft 429 kts 297°
2026-05-04 12:44 22.08811 -71.27183 36024 ft 428 kts 297°
2026-05-04 12:45 22.11886 -71.32682 36023 ft 428 kts 297°
2026-05-04 12:45 22.14953 -71.38183 36022 ft 428 kts 297°
2026-05-04 12:46 22.18024 -71.43682 36021 ft 428 kts 297°
2026-05-04 12:46 22.21093 -71.49180 36018 ft 428 kts 297°
2026-05-04 12:47 22.24160 -71.54681 36019 ft 428 kts 297°
2026-05-04 12:47 22.27219 -71.60188 36022 ft 428 kts 297°
2026-05-04 12:48 22.30281 -71.65705 36019 ft 428 kts 297°
2026-05-04 12:48 22.33320 -71.71179 36020 ft 428 kts 297°
2026-05-04 12:49 22.36376 -71.76691 36018 ft 428 kts 297°
2026-05-04 12:49 22.39437 -71.82221 36016 ft 429 kts 297°
2026-05-04 12:50 22.42502 -71.87761 36018 ft 430 kts 297°
2026-05-04 12:50 22.45567 -71.93296 36022 ft 429 kts 297°
2026-05-04 12:51 22.48623 -71.98825 36016 ft 429 kts 297°
2026-05-04 12:51 22.51676 -72.04363 36014 ft 430 kts 297°
2026-05-04 12:52 22.54737 -72.09914 36022 ft 429 kts 297°
2026-05-04 12:52 22.57791 -72.15456 36025 ft 428 kts 297°
2026-05-04 12:53 22.60835 -72.20993 36025 ft 428 kts 297°
2026-05-04 12:53 22.63873 -72.26526 36025 ft 427 kts 297°
2026-05-04 12:54 22.66913 -72.32052 36026 ft 427 kts 297°
2026-05-04 12:54 22.69944 -72.37574 36026 ft 426 kts 297°
2026-05-04 12:55 22.72966 -72.43101 36023 ft 426 kts 296°
2026-05-04 12:55 22.75983 -72.48618 36022 ft 426 kts 296°
2026-05-04 12:56 22.78998 -72.54137 36023 ft 425 kts 296°
2026-05-04 12:56 22.82012 -72.59651 36025 ft 425 kts 296°
2026-05-04 12:57 22.85021 -72.65165 36029 ft 425 kts 296°
2026-05-04 12:57 22.88024 -72.70685 36023 ft 425 kts 296°
2026-05-04 12:58 22.91008 -72.76160 36026 ft 424 kts 296°
2026-05-04 12:58 22.94002 -72.81672 36027 ft 424 kts 296°
2026-05-04 12:59 22.96993 -72.87186 36029 ft 424 kts 296°
2026-05-04 12:59 22.99978 -72.92699 36034 ft 423 kts 296°
2026-05-04 13:00 23.02960 -72.98210 36032 ft 424 kts 296°
2026-05-04 13:00 23.05951 -73.03721 36037 ft 423 kts 296°
2026-05-04 13:01 23.08931 -73.09224 36037 ft 423 kts 296°
2026-05-04 13:01 23.11900 -73.14734 36037 ft 422 kts 296°
2026-05-04 13:02 23.14874 -73.20237 36038 ft 422 kts 296°
2026-05-04 13:02 23.17843 -73.25742 36053 ft 422 kts 296°
2026-05-04 13:03 23.20804 -73.31246 36046 ft 421 kts 296°
2026-05-04 13:03 23.23756 -73.36747 36052 ft 421 kts 295°
2026-05-04 13:04 23.26707 -73.42248 36052 ft 421 kts 295°
2026-05-04 13:04 23.29651 -73.47746 36061 ft 421 kts 295°
2026-05-04 13:05 23.32574 -73.53203 36060 ft 420 kts 295°
2026-05-04 13:05 23.35523 -73.58689 36058 ft 420 kts 295°
2026-05-04 13:06 23.38464 -73.64173 36068 ft 419 kts 295°
2026-05-04 13:06 23.41393 -73.69667 36066 ft 419 kts 295°
2026-05-04 13:07 23.44305 -73.75151 36068 ft 418 kts 295°
2026-05-04 13:07 23.47224 -73.80633 36071 ft 418 kts 295°
2026-05-04 13:08 23.50143 -73.86105 36072 ft 418 kts 295°
2026-05-04 13:08 23.53061 -73.91575 36074 ft 417 kts 295°
2026-05-04 13:09 23.55965 -73.97045 36070 ft 417 kts 295°
2026-05-04 13:09 23.58871 -74.02510 36069 ft 416 kts 295°
2026-05-04 13:10 23.61767 -74.07981 36073 ft 416 kts 295°
2026-05-04 13:10 23.64655 -74.13445 36069 ft 416 kts 295°
2026-05-04 13:11 23.67523 -74.18871 36068 ft 416 kts 295°
2026-05-04 13:11 23.70410 -74.24333 36066 ft 416 kts 295°
2026-05-04 13:12 23.73291 -74.29798 36069 ft 415 kts 295°
2026-05-04 13:12 23.76173 -74.35263 36065 ft 415 kts 295°
2026-05-04 13:13 23.79054 -74.40733 36070 ft 415 kts 294°
2026-05-04 13:13 23.81925 -74.46198 36064 ft 415 kts 295°
2026-05-04 13:14 23.84800 -74.51665 36063 ft 415 kts 294°
2026-05-04 13:14 23.87671 -74.57139 36068 ft 415 kts 294°
2026-05-04 13:15 23.90532 -74.62621 36065 ft 415 kts 294°
2026-05-04 13:15 23.93397 -74.68100 36068 ft 415 kts 294°
2026-05-04 13:16 23.96266 -74.73582 36067 ft 415 kts 294°
2026-05-04 13:16 23.99124 -74.79061 36071 ft 415 kts 294°
2026-05-04 13:17 24.01986 -74.84540 36070 ft 415 kts 294°
2026-05-04 13:17 24.04846 -74.90013 36072 ft 414 kts 294°
2026-05-04 13:18 24.07685 -74.95480 36073 ft 413 kts 294°
2026-05-04 13:18 24.10505 -75.00904 36074 ft 413 kts 294°
2026-05-04 13:19 24.13345 -75.06365 36073 ft 412 kts 294°
2026-05-04 13:19 24.16181 -75.11817 36072 ft 412 kts 294°
2026-05-04 13:20 24.19007 -75.17269 36072 ft 412 kts 293°
2026-05-04 13:20 24.21829 -75.22721 36071 ft 411 kts 293°
2026-05-04 13:21 24.24648 -75.28176 36068 ft 412 kts 293°
2026-05-04 13:21 24.27468 -75.33632 36069 ft 411 kts 293°
2026-05-04 13:22 24.29810 -75.38169 36071 ft 411 kts 293°
2026-05-04 13:22 24.33096 -75.44548 36070 ft 411 kts 293°
2026-05-04 13:23 24.35426 -75.49080 36068 ft 411 kts 293°
2026-05-04 13:23 24.38230 -75.54535 36064 ft 411 kts 293°
2026-05-04 13:24 24.41032 -75.60002 36071 ft 411 kts 293°
2026-05-04 13:24 24.43837 -75.65468 36072 ft 412 kts 293°
2026-05-04 13:25 24.48054 -75.73673 36068 ft 411 kts 293°
2026-05-04 13:25 24.50848 -75.79151 36066 ft 411 kts 293°
2026-05-04 13:26 24.53645 -75.84625 36070 ft 411 kts 293°
2026-05-04 13:26 24.56442 -75.90097 36070 ft 411 kts 293°
2026-05-04 13:27 24.59236 -75.95568 36068 ft 410 kts 293°
2026-05-04 13:27 24.62020 -76.01050 36075 ft 410 kts 292°
2026-05-04 13:28 24.64807 -76.06524 36067 ft 410 kts 292°
2026-05-04 13:28 24.67586 -76.11995 36071 ft 410 kts 292°
2026-05-04 13:29 24.70359 -76.17466 36070 ft 409 kts 292°
2026-05-04 13:29 24.73132 -76.22935 36066 ft 409 kts 292°
2026-05-04 13:30 24.75908 -76.28410 36065 ft 409 kts 292°
2026-05-04 13:30 24.78677 -76.33881 36062 ft 409 kts 292°
2026-05-04 13:31 24.81418 -76.39318 36059 ft 409 kts 292°
2026-05-04 13:31 24.84177 -76.44788 36062 ft 409 kts 292°
2026-05-04 13:32 24.86936 -76.50253 36061 ft 409 kts 292°
2026-05-04 13:32 24.89691 -76.55729 36058 ft 409 kts 292°
2026-05-04 13:33 24.92439 -76.61206 36061 ft 408 kts 292°
2026-05-04 13:33 24.95192 -76.66680 36059 ft 408 kts 292°
2026-05-04 13:34 24.97937 -76.72147 36060 ft 408 kts 292°
2026-05-04 13:34 25.00675 -76.77612 36066 ft 407 kts 292°
2026-05-04 13:35 25.04780 -76.85811 36066 ft 407 kts 292°
2026-05-04 13:36 25.07512 -76.91280 36058 ft 407 kts 291°
2026-05-04 13:36 25.10245 -76.96754 36057 ft 408 kts 291°
2026-05-04 13:37 25.12963 -77.02201 36063 ft 407 kts 291°
2026-05-04 13:37 25.15687 -77.07681 36056 ft 407 kts 291°
2026-05-04 13:38 25.18406 -77.13162 36058 ft 407 kts 291°
2026-05-04 13:38 25.21121 -77.18639 36066 ft 407 kts 291°
2026-05-04 13:39 25.23841 -77.24113 36060 ft 407 kts 291°
2026-05-04 13:39 25.26562 -77.29590 36056 ft 406 kts 291°
2026-05-04 13:40 25.29230 -77.35076 36062 ft 402 kts 287°
2026-05-04 13:40 25.31141 -77.40813 36062 ft 397 kts 283°
2026-05-04 13:41 25.33005 -77.46559 36063 ft 397 kts 283°
2026-05-04 13:41 25.34871 -77.52301 36053 ft 397 kts 283°
2026-05-04 13:42 25.37674 -77.60920 36057 ft 397 kts 283°
2026-05-04 13:42 25.39534 -77.66670 36057 ft 397 kts 283°
2026-05-04 13:43 25.41392 -77.72421 36058 ft 397 kts 283°
2026-05-04 13:43 25.43226 -77.78176 36056 ft 396 kts 281°
2026-05-04 13:44 25.44775 -77.83997 36064 ft 393 kts 279°
2026-05-04 13:44 25.46165 -77.89841 36057 ft 393 kts 278°
2026-05-04 13:45 25.47579 -77.95680 36057 ft 393 kts 279°
2026-05-04 13:45 25.49028 -78.01509 36063 ft 393 kts 279°
2026-05-04 13:46 25.50487 -78.07332 36062 ft 392 kts 279°
2026-05-04 13:46 25.51942 -78.13148 36064 ft 392 kts 279°
2026-05-04 13:47 25.53379 -78.18919 36070 ft 391 kts 279°
2026-05-04 13:47 25.54814 -78.24718 36070 ft 390 kts 279°
2026-05-04 13:48 25.56249 -78.30512 36070 ft 391 kts 279°
2026-05-04 13:48 25.57686 -78.36306 36069 ft 390 kts 279°
2026-05-04 13:49 25.59114 -78.42098 36065 ft 390 kts 279°
2026-05-04 13:49 25.60536 -78.47890 36066 ft 390 kts 279°
2026-05-04 13:50 25.61963 -78.53687 36064 ft 390 kts 279°
2026-05-04 13:50 25.63391 -78.59485 36071 ft 390 kts 279°
2026-05-04 13:51 25.64812 -78.65283 36065 ft 390 kts 279°
2026-05-04 13:51 25.66224 -78.71082 36066 ft 390 kts 279°
2026-05-04 13:52 25.68340 -78.79770 36070 ft 389 kts 279°
2026-05-04 13:53 25.69755 -78.85551 36069 ft 388 kts 279°
2026-05-04 13:53 25.71164 -78.91335 36067 ft 388 kts 279°
2026-05-04 13:54 25.73266 -78.99998 36068 ft 388 kts 279°
2026-05-04 13:55 25.75353 -79.08649 36070 ft 387 kts 279°
2026-05-04 13:55 25.77432 -79.17284 36073 ft 386 kts 279°
2026-05-04 13:56 25.78807 -79.22989 36073 ft 385 kts 279°
2026-05-04 13:57 25.80874 -79.31584 36070 ft 384 kts 279°
2026-05-04 13:58 25.83604 -79.43013 36071 ft 382 kts 279°
2026-05-04 13:58 25.85640 -79.51562 36073 ft 381 kts 279°
2026-05-04 13:59 25.86994 -79.57247 36072 ft 381 kts 279°
2026-05-04 14:00 25.89020 -79.65768 36072 ft 380 kts 279°
2026-05-04 14:00 25.91027 -79.74268 36072 ft 379 kts 279°
2026-05-04 14:01 25.92561 -79.79882 36074 ft 386 kts 288°
2026-05-04 14:02 25.96797 -79.87637 36073 ft 392 kts 294°
2026-05-04 14:02 25.99679 -79.92775 36072 ft 391 kts 294°
2026-05-04 14:03 26.02556 -79.97910 36069 ft 391 kts 293°
2026-05-04 14:03 26.05426 -80.03049 36070 ft 391 kts 293°
2026-05-04 14:04 26.09728 -80.10760 36065 ft 391 kts 293°
2026-05-04 14:04 26.12593 -80.15896 36068 ft 391 kts 293°
2026-05-04 14:05 26.16279 -80.20448 36068 ft 415 kts 314°
2026-05-04 14:05 26.18839 -80.22065 36066 ft 432 kts 326°
2026-05-04 14:06 26.24444 -80.24596 36057 ft 435 kts 327°
2026-05-04 14:06 26.30048 -80.27129 36052 ft 435 kts 327°
2026-05-04 14:07 26.35642 -80.29682 36061 ft 434 kts 327°
2026-05-04 14:07 26.41232 -80.32245 36061 ft 435 kts 327°
2026-05-04 14:08 26.46828 -80.34800 36071 ft 435 kts 327°
2026-05-04 14:08 26.52427 -80.37354 36079 ft 434 kts 327°
2026-05-04 14:09 26.60793 -80.41189 35514 ft 432 kts 327°
2026-05-04 14:09 26.63575 -80.42468 35281 ft 432 kts 327°
2026-05-04 14:10 26.69136 -80.45023 34764 ft 432 kts 328°
2026-05-04 14:10 26.71918 -80.46306 34072 ft 435 kts 328°
2026-05-04 14:10 26.74726 -80.47603 33242 ft 438 kts 328°
2026-05-04 14:10 26.77559 -80.48910 32400 ft 442 kts 329°
2026-05-04 14:11 26.80403 -80.50218 31744 ft 440 kts 329°
2026-05-04 14:11 26.85068 -80.52352 30855 ft 432 kts 329°
2026-05-04 14:11 26.88766 -80.54050 30116 ft 426 kts 330°
2026-05-04 14:12 26.90580 -80.54885 29759 ft 423 kts 330°
2026-05-04 14:12 26.93290 -80.56134 29214 ft 419 kts 330°
2026-05-04 14:12 26.98631 -80.58595 28142 ft 411 kts 330°
2026-05-04 14:13 27.01259 -80.59809 27617 ft 407 kts 330°
2026-05-04 14:13 27.03860 -80.61013 27099 ft 402 kts 330°
2026-05-04 14:13 27.06434 -80.62206 26582 ft 398 kts 330°
2026-05-04 14:13 27.08982 -80.63387 26090 ft 394 kts 330°
2026-05-04 14:14 27.11505 -80.64556 25593 ft 391 kts 330°
2026-05-04 14:14 27.16478 -80.66862 24647 ft 383 kts 330°
2026-05-04 14:14 27.18931 -80.67999 24194 ft 380 kts 330°
2026-05-04 14:15 27.23782 -80.70245 23307 ft 374 kts 330°
2026-05-04 14:15 27.28537 -80.72454 22448 ft 367 kts 330°
2026-05-04 14:16 27.33207 -80.74619 21597 ft 359 kts 330°
2026-05-04 14:16 27.35507 -80.75688 21161 ft 356 kts 330°
2026-05-04 14:17 27.40042 -80.77797 20292 ft 350 kts 330°
2026-05-04 14:17 27.42252 -80.78828 19855 ft 347 kts 330°
2026-05-04 14:17 27.46682 -80.80900 18953 ft 343 kts 330°
2026-05-04 14:18 27.48875 -80.81924 18509 ft 340 kts 330°
2026-05-04 14:18 27.53232 -80.83956 17605 ft 337 kts 330°
2026-05-04 14:19 27.57540 -80.85969 16692 ft 334 kts 330°
2026-05-04 14:19 27.59678 -80.86971 16231 ft 332 kts 330°
2026-05-04 14:19 27.61807 -80.87970 15784 ft 331 kts 331°
2026-05-04 14:19 27.63928 -80.88964 15330 ft 330 kts 331°
2026-05-04 14:20 27.66041 -80.89953 14861 ft 328 kts 331°
2026-05-04 14:20 27.68146 -80.90935 14416 ft 327 kts 332°
2026-05-04 14:20 27.70243 -80.91913 13963 ft 326 kts 332°
2026-05-04 14:21 27.74435 -80.93876 12930 ft 327 kts 332°
2026-05-04 14:21 27.76529 -80.94857 12474 ft 325 kts 332°
2026-05-04 14:21 27.78615 -80.95834 12017 ft 324 kts 333°
2026-05-04 14:21 27.80690 -80.96809 11567 ft 322 kts 333°
2026-05-04 14:22 27.82758 -80.97779 11121 ft 321 kts 334°
2026-05-04 14:22 27.84818 -80.98743 10668 ft 320 kts 334°
2026-05-04 14:22 27.86868 -80.99704 10376 ft 315 kts 334°
2026-05-04 14:22 27.88851 -81.00633 10248 ft 304 kts 335°
2026-05-04 14:23 27.92656 -81.02420 9969 ft 291 kts 335°
2026-05-04 14:23 27.94530 -81.03307 9798 ft 294 kts 335°
2026-05-04 14:23 27.96427 -81.04204 9379 ft 296 kts 335°
2026-05-04 14:24 27.98326 -81.05100 8992 ft 296 kts 336°
2026-05-04 14:24 28.00226 -81.05996 8638 ft 295 kts 336°
2026-05-04 14:24 28.02127 -81.06891 8284 ft 294 kts 337°
2026-05-04 14:24 28.04001 -81.07774 7880 ft 290 kts 337°
2026-05-04 14:25 28.05870 -81.08654 7453 ft 289 kts 337°
2026-05-04 14:25 28.09512 -81.10368 6554 ft 281 kts 338°
2026-05-04 14:25 28.11313 -81.11220 6164 ft 280 kts 338°
2026-05-04 14:26 28.13104 -81.12069 5787 ft 279 kts 338°
2026-05-04 14:26 28.14881 -81.12917 5397 ft 275 kts 336°
2026-05-04 14:26 28.16384 -81.14208 5032 ft 274 kts 307°
2026-05-04 14:26 28.17252 -81.16107 4664 ft 269 kts 298°
2026-05-04 14:27 28.18276 -81.17845 4312 ft 263 kts 313°
2026-05-04 14:27 28.19488 -81.19330 3962 ft 257 kts 318°
2026-05-04 14:27 28.20753 -81.20744 3608 ft 254 kts 319°
2026-05-04 14:27 28.21991 -81.22142 3394 ft 245 kts 319°
2026-05-04 14:28 28.23133 -81.23484 3332 ft 230 kts 318°
2026-05-04 14:28 28.24205 -81.24779 3246 ft 220 kts 318°
2026-05-04 14:28 28.25219 -81.26030 3153 ft 211 kts 318°
2026-05-04 14:28 28.26191 -81.27262 3063 ft 208 kts 316°
2026-05-04 14:29 28.28359 -81.29237 2564 ft 194 kts 348°
2026-05-04 14:29 28.30897 -81.29455 2048 ft 176 kts
2026-05-04 14:30 28.32071 -81.29470 1830 ft 160 kts
2026-05-04 14:30 28.33126 -81.29481 1633 ft 144 kts
2026-05-04 14:30 28.35041 -81.29499 1252 ft 134 kts
2026-05-04 14:31 28.35975 -81.29513 1066 ft 134 kts
2026-05-04 14:31 28.37832 -81.29531 720 ft 133 kts
2026-05-04 14:32 28.39680 -81.29550 364 ft 135 kts
2026-05-04 14:32 28.40620 -81.29559 174 ft 135 kts
2026-05-04 14:32 28.41522 -81.29565 99 ft 116 kts 358°
2026-05-04 14:32 28.42164 -81.29572 95 ft 67 kts 359°
2026-05-04 14:33 28.42358 -81.29591 97 ft 11 kts 348°
2026-05-04 14:33 28.42374 -81.29595 95 ft 7 kts 345°
2026-05-04 14:33 28.42447 -81.29647 97 ft 12 kts 311°
2026-05-04 14:33 28.42518 -81.29697 97 ft 13 kts 354°
2026-05-04 14:34 28.42593 -81.29741 95 ft 14 kts 291°
2026-05-04 14:34 28.42597 -81.29843 95 ft 12 kts 275°
2026-05-04 14:34 28.42652 -81.29882 97 ft 11 kts
2026-05-04 14:34 28.42729 -81.29885 95 ft 7 kts 339°
2026-05-04 14:35 28.42752 -81.29941 94 ft 9 kts 295°
2026-05-04 14:35 28.42784 -81.29991 94 ft 7 kts 309°
2026-05-04 14:35 28.42798 -81.30011 94 ft 1 kts 309°
2026-05-04 14:35 28.42799 -81.30012 94 ft 0 kts 309°